Regional Weather Roundup
Issued by NWS

Home | Current Version | Previous Version | Graphics & Text | Print | Product List | Glossary On
Versions: 1 2 3 4 5 6 7 8 9 10 11 12 13 14 15 16 17 18 19 20 21 22 23 24 25 26 27 28 29 30 31 32 33 34 35 36 37 38 39 40 41 42 43 44 45 46 47 48 49 50
000
ASUS43 KOAX 310810
RWRNE

WEATHER ROUNDUP FOR NEBRASKA
NATIONAL WEATHER SERVICE OMAHA NE
300 AM CDT FRI JUL 31 2015

NOTES: SATELLITE DATA IS BEING USED TO AUGMENT CLOUD COVER ABOVE
       12000 FEET.
       "FAIR" INDICATES FEW OR NO CLOUDS BELOW 12,000 FEET WITH NO
       SIGNIFICANT WEATHER AND/OR OBSTRUCTIONS TO VISIBILITY.

  * THESE STATIONS DO NOT REPORT WEATHER SUCH AS RAIN...SNOW OR FOG.

NEZ001>004-019>022-054>056-310900-
NEBRASKA PANHANDLE

CITY           SKY/WX    TMP DP  RH WIND       PRES   REMARKS
SCOTTSBLUFF    CLEAR     63  59  87 E6        30.27S
ALLIANCE       CLEAR     58  56  93 S6        30.26F
CHADRON        CLEAR     57  50  77 W3        30.22S
KIMBALL        CLEAR     59  55  87 W5        30.31S
SIDNEY         CLEAR     56  54  93 CALM      30.30S
$$

NEZ057>060-069>072-079>082-310900-
SOUTHWEST NEBRASKA

CITY           SKY/WX    TMP DP  RH WIND       PRES   REMARKS
NORTH PLATTE   CLEAR     63  60  90 E5        30.22S
IMPERIAL       CLEAR     63  58  83 CALM      30.24R
LEXINGTON      CLEAR     65  63  93 CALM      30.20S
MCCOOK         CLEAR     67  62  84 CALM      30.21R
OGALLALA       CLEAR     61  59  94 CALM      30.24F
$$

NEZ005>010-023>029-035>040-094-310900-
NORTH CENTRAL NEBRASKA

CITY           SKY/WX    TMP DP  RH WIND       PRES   REMARKS
VALENTINE      CLEAR     61  51  70 CALM      30.19F
AINSWORTH      CLEAR     62  57  81 CALM      30.19F
BROKEN BOW     CLEAR     66  62  87 N5        30.20S
O`NEILL        CLEAR     64  62  94 S7        30.17S
ORD            CLEAR     65  63  93 SW5       30.16F
THEDFORD       CLEAR     61  59  92 SW5       30.22F
$$

NEZ041-046>049-061>064-073>077-083>087-310900-
SOUTH CENTRAL NEBRASKA

CITY           SKY/WX    TMP DP  RH WIND       PRES   REMARKS
GRAND ISLAND   CLEAR     70  67  90 S7        30.17F
AURORA         CLEAR     69  68  96 SW7       30.17S
HASTINGS       CLEAR     70  67  90 S7        30.19S
HEBRON         CLEAR     71  66  83 SW6       30.17S
HOLDREGE       CLEAR     67  63  87 S3        30.20S
KEARNEY *      CLEAR     70  64  83 SW6       30.19S
YORK           CLEAR     68  66  94 SW10      30.16F
$$

NEZ011>018-030>034-042>045-310900-
NORTHEAST NEBRASKA

CITY           SKY/WX    TMP DP  RH WIND       PRES   REMARKS
NORFOLK        CLEAR     69  64  84 SE5       30.15S
ALBION         CLEAR     69  64  83 NW3       30.16F
BLAIR          CLOUDY    70  63  78 CALM      30.15S
COLUMBUS *     CLEAR     64  59  82 NE3       30.16S
FREMONT        PTCLDY    71  64  78 CALM      30.15F
TEKAMAH        TSTM      70  67  90 W5        30.14S
WAYNE          PTCLDY    69  66  92 SW8       30.15S
$$

NEZ050>053-065>068-078-088>093-310900-
SOUTHEAST NEBRASKA

CITY           SKY/WX    TMP DP  RH WIND       PRES   REMARKS
LINCOLN        CLEAR     69  62  78 CALM      30.16S
OMAHA EPPLEY   PTCLDY    72  66  81 CALM      30.14S
BEATRICE       CLEAR     69  63  81 CALM      30.17S
FALLS CITY     PTCLDY    69  63  81 S6        30.15S
NEBRASKA CITY  CLEAR     67  63  87 SW8       30.16S
PLATTSMOUTH    PTCLDY    71  62  72 S8        30.15R
$$

NEZ044-045-051>053-067-310900-
OMAHA AREA

CITY           SKY/WX    TMP DP  RH WIND       PRES   REMARKS
OMAHA EPPLEY   PTCLDY    72  66  81 CALM      30.14S
BLAIR          CLOUDY    70  63  78 CALM      30.15S
FREMONT        PTCLDY    71  64  78 CALM      30.15F
MILLARD        PTCLDY    70  63  78 CALM      30.14S
OFFUTT AFB     PTCLDY    68  65  88 S3        30.13F
PLATTSMOUTH    PTCLDY    71  62  72 S8        30.15R
WAHOO          FAIR      67  63  87 CALM      30.15S
$$



USA.gov is the U.S. government's official web portal to all federal, state and local government web resources and services.